Location: La Fredeussais
(48.1780°N, 1.3980°W)
Time: 09:46:11
(UTC+00:00)

Thor Agena Rocket - Pass Details

Date: 09 May 2021
Orbit: 760 x 807 km, 99.0° (Epoch: 13 June)

Event Time Altitude Azimuth Distance (km) Brightness Sun altitude
Rises 23:28:44 0° 20° (NNE) 3,299 7.8 -23.8°
Reaches altitude 10° 23:31:10 10° 26° (NNE) 2,372 6.8 -23.8°
Maximum altitude 23:36:12 45° 99° (E) 1,076 4.1 -23.9°
Enters shadow 23:36:39 44° 115° (ESE) 1,093 4.0 -24.0°
